Weather in Pravokumskoye

Russia / Stavropol Krai     44°22′42″N   44°05′29″E
temp.,
°C
wind,
m/s
gust,
m/s
humid.,
%
clouds,
%
prec.,
mm/h
press.,
hPa
HPBL,
m
19 april, mon
mon1900:00+11se3494100 0.0 101672
03:00+12sse2385100 0.1 101663
06:00+12ese1188100 1.0 101621
09:00+14nw1182100 1.3 1017117
12:00+14ene228399 0.8 1016166
15:00+16se5874100 1.1 1014320
18:00+18e117086 0.0 101411
21:00+15ne3479100 0.0 101572
20 april, tue
tue2000:00+14e5987100 0.0 1014257
03:00+12ese31077100 0.0 1012235
06:00+12se51371100 0.0 1010353
09:00+16ese5763100 0.0 1009411
12:00+20ese6955100 0.0 1007663
15:00+22se61058100 0.1 1006442
18:00+19se3569100 0.1 1006123
21:00+15nw2277100 0.2 100919
21 april, wed
wed2100:00+15nw71379100 1.0 1011744
03:00+13nw61373100 1.2 1014556
06:00+11nnw41075100 0.0 1016627
09:00+12nw3676100 0.0 1019851
12:00+12nw5768100 0.0 1019894
15:00+13n576697 0.0 1020853
18:00+12nnw3573100 0.0 1021240
21:00+11wnw1281100 0.1 1023116
22 april, thu
thu2200:00+10w2285100 0.1 102285
03:00+11sw1183100 0.1 102219
06:00+10n1188100 0.4 102319
09:00+10ene1295100 4.9 1024175
12:00+10ene2388100 1.2 1025300
15:00+11ese1286100 1.3 1025304
18:00+11s2390100 0.0 1025171
21:00+9s2293100 0.0 102423
23 april, fri
fri2300:00+9ssw1192100 0.0 102410
03:00+8se1192100 0.0 102315
06:00+9s1288100 0.0 102345
09:00+12s237590 0.0 1023487
12:00+16se225754 0.0 10221327
15:00+17s1155100 0.0 10211103
18:00+16s116456 0.0 102115
21:00+12sse117269 0.0 102110